Regional Weather Roundup
Issued by NWS Green Bay, WI

Home | Current Version | Previous Version | Text Only | Print | Product List | Glossary On
Versions: 1 2 3 4 5 6 7 8 9 10 11 12 13 14 15 16 17 18 19 20 21 22 23 24 25 26 27 28 29 30 31 32 33 34 35 36 37 38 39 40 41 42 43 44 45 46 47 48 49 50
000
ASUS43 KGRB 210410
RWRGRB

NORTH-CENTRAL AND NORTHEAST WISCONSIN REGIONAL WEATHER ROUNDUP
NATIONAL WEATHER SERVICE GREEN BAY WI
1100 PM CDT MON OCT 20 2014

WIZ005-009-010>012-018-019-210500-
NORTH CENTRAL WISCONSIN

CITY           SKY/WX    TMP DP  RH WIND       PRES   REMARKS
IRONWOOD       CLOUDY    43  39  87 NE5       30.09R
MANITOWISH WTR CLOUDY    40  40  98 N5        30.09R
ARBOR VITAE    CLOUDY    42  39  92 NE6       30.08R
EAGLE RIVER    CLOUDY    39  38  94 N7        30.07R
LAND O LAKES   CLOUDY    40  37  87 N8        30.09R
RHINELANDER    CLOUDY    40  38  93 N3        30.08R
PHILLIPS       CLOUDY    43  40  88 N5        30.08R
ANTIGO         CLOUDY    42  38  86 N10       30.06R
TOMAHAWK       CLOUDY    42  38  86 CALM      30.08R
MERRILL        CLOUDY    45  41  85 N8        30.07R
$$

WIZ013-073-210500-
NORTHEAST WISCONSIN

CITY           SKY/WX    TMP DP  RH WIND       PRES   REMARKS
IRON MOUNTAIN  CLOUDY    43  36  76 N13       30.04R
MARINETTE      CLOUDY    46  36  66 N9        30.03R
OCONTO         CLOUDY    45  41  86 N5        30.04R
$$

WIZ017-030-035>037-045-210500-
CENTRAL WISCONSIN

CITY           SKY/WX    TMP DP  RH WIND       PRES   REMARKS
MEDFORD        CLOUDY    45  40  82 N5        30.06S
WAUSAU         LGT RAIN  46  40  79 N3        30.05R
MOSINEE        CLOUDY    45  41  87 N6        30.07R
MARSHFIELD     CLOUDY    49  40  71 N6        30.06R
WISC RAPIDS    CLOUDY    49  40  71 N5        30.07R
STEVENS POINT  CLOUDY    44  39  81 N3        30.06R
WAUPACA        CLOUDY    50  41  71 N6        30.05R
SHAWANO        CLOUDY    48  40  73 N9        30.05R
CLINTONVILLE   CLOUDY    46  39  76 N5        30.04S
$$

WIZ038-039-048-051-210500-
FOX VALLEY

CITY           SKY/WX    TMP DP  RH WIND       PRES   REMARKS
NWS GREEN BAY  CLOUDY    47  40  76 N9        30.04R
APPLETON       CLOUDY    46  39  76 N8        30.04R
OSHKOSH        CLOUDY    49  42  77 N8        30.03R
FOND DU LAC    CLOUDY    48  43  82 N6        30.03S
$$

WIZ022-050-052-210500-
EAST CENTRAL WISCONSIN

CITY           SKY/WX    TMP DP  RH WIND       PRES   REMARKS
STURGEON BAY   CLOUDY    46  37  71 N15G21    30.02R
MANITOWOC      CLOUDY    48  43  82 N9        30.02R
SHEBOYGAN      CLOUDY    48  42  80 N8        30.01S
$$

LMZ563-521-522-541>543-210500-
LAKESHORE

STATION/POSITION TIME  TEMP    WIND        PRES    VSBY  WAVE
                       AIR SEA DIR/SP/G                  HT/PER
                 (UTC) (F)     (DEG/KT/KT) (MB)    (MI)  (FT/S)
SHEBOYGAN LKSHOR 0400   49 50  350/ 12/ 14 1016.8R
KEWAUNEE LKSHORE 0400   47      20/  6/  8 1015.5R
NORTHPORT PIER   0400   47     340/ 22/ 26 1016.3R
N MID LAKE BUOY  0400   46 51  340/ 21/ 27 1015.2R         4/ 5
CHAMBERS ISLAND  0400   47     320/ 18/ 21 1016.6F
MENOMINEE LKSHOR 0400   47     330/ 16/ 19 1017.3R
$$


USA.gov is the U.S. government's official web portal to all federal, state and local government web resources and services.